Location: Dittelbrunn
(50.0738°N, 10.2196°E)
Time: 22:53:02
(UTC+00:00)

NOSS 3-2 (A) - Pass Details

Date: 18 September 2020
Orbit: 795 x 1413 km, 63.4° (Epoch: 02 October)

Event Time Altitude Azimuth Distance (km) Brightness Sun altitude
Rises 18:09:10 0° 314° (NW) 3,845 7.7 -7.8°
Reaches altitude 10° 18:11:44 10° 319° (NW) 2,973 6.9 -8.2°
Maximum altitude 18:18:50 59° 39° (NE) 1,397 4.2 -9.3°
Enters shadow 18:26:32 12° 117° (ESE) 3,233 5.6 -10.5°
